Location: Newark
(54.8972°N, 99.8189°W)
Time: 17:56:19
(UTC+00:00)

Vanguard 1 - All Passes

Search period start: 20 November 2019 00:00
Search period end: 30 November 2019 00:00
Orbit: 652 x 3831 km, 34.2° (Epoch: 19 November)

Date Brightness Start Highest point End Pass type
(mag) Time Alt. Az. Time Alt. Az. Time Alt. Az.
20 Nov - 17:09:26 10° SSW 17:12:15 12° S 17:14:42 10° SSE daylight
21 Nov - 17:29:08 10° SSW 17:32:51 13° S 17:35:54 10° SSE daylight
22 Nov - 15:29:39 10° S 15:33:56 13° SSE 15:37:27 10° SE daylight
22 Nov - 17:49:22 10° SW 17:53:25 14° S 17:56:41 10° SSE daylight
23 Nov - 15:48:40 10° SSW 15:54:35 15° S 15:59:08 10° SE daylight
23 Nov - 18:09:58 10° SW 18:13:56 14° SSW 18:17:09 10° SSE daylight
24 Nov - 13:51:19 10° S 13:55:04 11° SSE 13:58:22 10° SE visible
24 Nov - 16:08:23 10° SSW 16:15:14 17° S 16:20:15 10° SE daylight
24 Nov - 18:30:53 10° SW 18:34:23 13° SSW 18:37:18 10° S daylight
25 Nov - 14:08:48 10° S 14:15:46 15° SSE 14:21:12 10° SE daylight
25 Nov - 16:28:32 10° SW 16:35:51 19° S 16:41:05 10° SE daylight
25 Nov - 18:52:16 10° SW 18:54:47 12° SSW 18:56:59 10° S daylight
26 Nov - 14:27:41 10° SSW 14:36:27 18° SSE 14:42:50 10° SE daylight
26 Nov - 16:48:58 10° SW 16:56:25 20° S 17:01:42 10° SE daylight
27 Nov - 12:30:52 10° S 12:36:25 12° SSE 12:41:09 10° SE visible
27 Nov - 14:47:14 10° SSW 14:57:08 21° S 15:04:02 10° SE daylight
27 Nov - 17:09:40 10° SW 17:16:58 19° SSW 17:22:07 10° SSE daylight
28 Nov - 12:47:59 10° S 12:57:04 16° SSE 13:04:07 10° ESE visible
28 Nov - 15:07:12 10° SW 15:17:48 23° S 15:24:56 10° SE daylight
28 Nov - 17:30:34 10° WSW 17:37:25 18° SSW 17:42:21 10° SSE daylight
29 Nov - 13:06:32 10° SSW 13:17:45 20° SSE 13:25:55 10° ESE visible
29 Nov - 15:27:31 10° SW 15:38:26 25° S 15:45:40 10° SE daylight
29 Nov - 17:51:45 10° WSW 17:57:47 16° SSW 18:02:19 10° S daylight
